Terminal Aerodrome Forecast
Issued by NWS

Home | Current Version | Previous Version | Text Only | Print | Product List | Glossary On
Versions: 1 2 3 4 5 6 7 8 9 10 11 12 13 14 15 16 17 18 19 20 21 22 23 24 25 26 27 28 29 30 31 32 33 34 35 36 37 38 39 40 41 42 43 44 45 46 47 48 49 50
000
FTUS41 KCTP 231729
TAFBFD
TAF
KBFD 231729Z 2318/2418 28009KT P6SM VCTS BKN035CB
     FM232100 31010G17KT P6SM BKN007
     FM240300 35005KT 6SM BR OVC012
      TEMPO 2409/2412 3SM BR BKN007
     FM241300 35009KT P6SM BKN040=

USA.gov is the U.S. government's official web portal to all federal, state and local government web resources and services.